Volver al catálogo

DELTA 1 DEB

YO

ActivoHEO
NORAD 28144·DEBRIS·🇺🇸 United States

Lanzado Jul 8, 1976 desde Cape Canaveral Space Force Station

Loading…

Próximos Pases (próximas 24 horas)

TLE

ActualizadoSource: Space-Track

Época: Sep 8, 2026, 03:49 UTC

1 28144U 76066D   26251.15935884  .00001547  00000-0  83042-3 0  9990
2 28144  24.5658 292.3859 4399205 258.6843  50.2759  6.48969425330239

Sigue DELTA 1 DEB en tiempo real con AllMySat

Download on the App Store